EW4071 Weather Reports


Display with metric or nautical units.
time (UTC)temp
F
wind
direction
speed
MPH
gust
MPH
rain 1hr
in
rain 24hr
in
rain mn
in
humidity
%
barometer
mb
20260502121554 48 146 0.0 0.0 0.00 0.07 0.07 95 1018.8
20260502120107 48 146 0.0 0.0 0.00 0.07 0.07 95 1018.5
20260502114628 48 146 0.0 0.0 0.00 0.07 0.07 95 1018.3
20260502113050 48 146 0.0 0.0 0.00 0.07 0.07 94 1018.2
20260502111551 49 146 0.0 0.0 0.00 0.07 0.07 94 1018.2
20260502110049 49 146 0.0 0.0 0.00 0.07 0.07 95 1018.1
20260502104547 48 146 0.0 0.0 0.00 0.07 0.07 94 1018.1
20260502103046 49 146 0.0 0.0 0.00 0.07 0.07 94 1018.0
20260502101601 49 146 0.0 0.0 0.00 0.07 0.07 94 1018.0
20260502054527 58 100 0.0 0.0 0.00 0.00 0.00 57 1017.2
20260502054505 58 54 0.0 0.0 0.00 0.00 0.00 57 1017.2
20260502044505 56 330 0.0 0.0 0.00 0.00 0.00 60 1017.1
20260502010106 65 265 0.0 0.0 0.00 0.00 0.00 39 1015.2
20260502004552 66 265 0.0 0.0 0.00 0.00 0.00 35 1015.0
20260502003052 66 265 0.0 0.0 0.00 0.00 0.00 33 1014.8
20260502001552 67 265 0.0 0.0 0.00 0.00 0.00 33 1014.9
20260502000052 67 267 0.0 0.0 0.00 0.00 0.00 35 1014.8
20260501234549 68 287 0.0 0.0 0.00 0.00 0.00 33 1014.8
20260501233056 68 256 0.0 0.0 0.00 0.00 0.00 32 1014.7
20260501231549 69 27 0.0 0.0 0.00 0.00 0.00 33 1014.6
20260501230050 69 303 0.0 0.0 0.00 0.00 0.00 31 1014.6
20260501224546 69 301 0.0 0.0 0.00 0.00 0.00 31 1014.6
20260501223044 70 280 0.0 0.0 0.00 0.00 0.00 31 1014.5
20260501221542 69 185 0.0 0.0 0.00 0.00 0.00 35 1014.5
20260501220040 69 147 0.0 0.0 0.00 0.00 0.00 33 1014.5
20260501214537 69 30 0.0 0.0 0.00 0.00 0.00 33 1014.6
20260501194529 67 220 0.0 0.0 0.00 0.00 0.00 40 1016.9